Air Force Academy, CO

3:04 AM MDT on March 30, 2017 (GMT -0600)
Usaf Academy

Weather History for KAFF - May, 2013

Change the Weather History Date:

Tuesday, May 28, 2013

  Actual Average Record
Temperature  
Mean Temperature 56 °F -  
Max Temperature 76 °F 69 °F 82 °F (1998)
Min Temperature 38 °F 43 °F 37 °F (1997)
Degree Days  
Heating Degree Days 8    
Growing Degree Days 6 (Base 50)    
Moisture  
Dew Point 35 °F    
Average Humidity 42    
Maximum Humidity 71    
Minimum Humidity 18    
Precipitation  
Precipitation 0.00 in - - ()
Sea Level Pressure  
Sea Level Pressure 29.65 in    
Wind  
Wind Speed 9 mph (SE)    
Max Wind Speed 22 mph    
Max Gust Speed 32 mph    
Visibility 10 miles    
Events      
Averages and records for this station are not official NWS values.
T = Trace of Precipitation, MM = Missing Value Source: NWS Daily Summary

Daily Weather History Graph

Daily Weather History Graph

Search for Another Location

Airport or City:

Trip Planner

Search our weather history database for the weather conditions in past years. The results will help you decide how hot, cold, wet, or windy it might be!

Date:

Astronomy

May. 28, 2013 Rise Set
Actual Time 5:37 AM MDT 8:16 PM MDT
Civil Twilight 5:06 AM MDT 8:47 PM MDT
Nautical Twilight 4:27 AM MDT 9:26 PM MDT
Astronomical Twilight 3:43 AM MDT 10:10 PM MDT
Moon 11:42 PM MDT (5/28) 9:27 AM MDT (5/28)
Length of Visible Light 15h 41m
Length of Day
14h 39m
Waning Gibbous, 82% of the Moon is Illuminated
May 28
Waning Gibbous
May 31
Last Quarter
Jun 8
New
Jun 16
First Quarter
Jun 23
Full

Hourly Weather History & Observations

Time (MDT) Temp. Windchill Dew Point Humidity Pressure Visibility Wind Dir Wind Speed Gust Speed Precip Events Conditions
12:58 AM 47.3 °F - 26.4 °F 44% 29.68 in 10.0 mi NNW 5.8 mph - N/A   Clear
1:58 AM 46.8 °F - 28.9 °F 50% 29.68 in 10.0 mi North 4.6 mph - N/A   Clear
2:58 AM 44.8 °F 41.6 °F 32.2 °F 61% 29.70 in 10.0 mi NNW 5.8 mph - N/A   Partly Cloudy
3:58 AM 42.1 °F 37.1 °F 27.1 °F 55% 29.73 in 10.0 mi North 8.1 mph - N/A   Partly Cloudy
4:58 AM 38.8 °F 32.6 °F 27.1 °F 63% 29.75 in 10.0 mi North 9.2 mph - N/A   Clear
5:58 AM 39.0 °F 32.8 °F 27.9 °F 64% 29.74 in 10.0 mi North 9.2 mph - N/A   Clear
6:58 AM 45.5 °F 42.5 °F 31.1 °F 57% 29.69 in 10.0 mi North 5.8 mph - N/A   Clear
7:58 AM 54.9 °F - 42.4 °F 63% 29.67 in 10.0 mi SE 2.3 mph - N/A   Scattered Clouds
8:58 AM 58.5 °F - 48.9 °F 71% 29.69 in 10.0 mi SSE 4.6 mph - N/A   Scattered Clouds
9:13 AM 60.8 °F - 48.2 °F 63% 29.91 in 10.0 mi SE 4.6 mph - N/A   Mostly Cloudy
9:23 AM 60.8 °F - 48.2 °F 63% 29.91 in 10.0 mi South 8.1 mph - N/A   Mostly Cloudy
9:28 AM 60.8 °F - 48.2 °F 63% 29.91 in 10.0 mi SSE 6.9 mph - N/A   Mostly Cloudy
9:55 AM 62.6 °F - 48.2 °F 59% 29.63 in 10.0 mi SSE 9.2 mph - N/A   Mostly Cloudy
10:09 AM 62.6 °F - 48.2 °F 59% 29.90 in 10.0 mi SSE 9.2 mph - N/A   Mostly Cloudy
10:58 AM 64.6 °F - 47.3 °F 53% 29.68 in 10.0 mi South 8.1 mph - N/A   Scattered Clouds
11:58 AM 70.3 °F - 42.4 °F 36% 29.63 in 10.0 mi SSE 13.8 mph 19.6 mph N/A   Partly Cloudy
12:58 PM 72.9 °F - 39.4 °F 30% 29.59 in 10.0 mi SSE 16.1 mph 23.0 mph N/A   Scattered Clouds
1:41 PM 75.2 °F - 33.8 °F 22% 29.79 in 10.0 mi South 16.1 mph 24.2 mph N/A   Mostly Cloudy
1:58 PM 75.9 °F - 34.7 °F 22% 29.57 in 10.0 mi SSE 19.6 mph 25.3 mph N/A   Mostly Cloudy
2:58 PM 75.7 °F - 32.2 °F 20% 29.54 in 10.0 mi SSE 19.6 mph 31.1 mph N/A   Scattered Clouds
3:58 PM 75.6 °F - 32.7 °F 21% 29.53 in 10.0 mi SSE 21.9 mph 32.2 mph N/A   Partly Cloudy
4:19 PM 75.2 °F - 32.0 °F 21% 29.73 in 10.0 mi SE 16.1 mph 26.5 mph N/A   Clear
4:58 PM 74.3 °F - 30.2 °F 20% 29.53 in 10.0 mi SE 18.4 mph 24.2 mph N/A   Clear
5:27 PM 75.2 °F - 32.0 °F 21% 29.71 in 10.0 mi South 13.8 mph 21.9 mph N/A   Partly Cloudy
5:58 PM 74.5 °F - 28.4 °F 18% 29.49 in 10.0 mi South 12.7 mph - N/A   Clear
6:58 PM 72.1 °F - 29.1 °F 20% 29.47 in 10.0 mi SSE 8.1 mph - N/A   Clear
7:58 PM 66.9 °F - 24.4 °F 20% 29.45 in 10.0 mi SSE 8.1 mph - N/A   Clear
8:58 PM 62.6 °F - 25.7 °F 25% 29.47 in 10.0 mi NW 2.3 mph - N/A   Clear
9:58 PM 55.2 °F - 27.9 °F 35% 29.50 in 10.0 mi NNW 9.2 mph - N/A   Scattered Clouds
10:58 PM 55.4 °F - 27.9 °F 35% 29.45 in 10.0 mi NNW 6.9 mph - N/A   Clear
11:58 PM 55.9 °F - 28.4 °F 35% 29.44 in 10.0 mi NE 4.6 mph - N/A   Clear